Location: Trebic
(49.2170°N, 15.8830°E)
Time: 06:08:27
(UTC+02:00)

Transit 2A Rocket - Pass Details

Date: 31 July 2019
Orbit: 590 x 913 km, 66.7° (Epoch: 20 August)

Event Time Altitude Azimuth Distance (km) Brightness Sun altitude
Rises 00:17:17 0° 164° (SSE) 3,507 - -21.6°
Reaches altitude 10° 00:20:41 10° 145° (SE) 2,540 - -21.7°
Exits shadow 00:24:20 17° 107° (ESE) 2,034 6.9 -21.8°
Maximum altitude 00:24:21 17° 107° (ESE) 2,034 6.9 -21.8°
Drops below altitude 10° 00:27:53 10° 68° (ENE) 2,446 7.7 -21.9°
Sets 00:31:04 0° 49° (NE) 3,323 8.8 -22.0°
